Location: Allie Creek
(37.5926°N, 89.8526°W)
Time: 04:18:03
(UTC+00:00)

Meteor 1-27 Rocket - Pass Details

Date: 21 April 2024
Orbit: 829 x 909 km, 81.3° (Epoch: 27 May)

Event Time Altitude Azimuth Distance (km) Brightness Sun altitude
Exits shadow 07:21:08 31° 59° (ENE) 1,470 5.2 -36.7°
Drops below altitude 10° 07:24:44 10° 26° (NNE) 2,497 6.9 -36.3°
Sets 07:27:17 0° 19° (NNE) 3,425 7.8 -36.1°
